CAPE
nan nan nan nan nan nan nan nan nan nan nan nan nan nan nan nan nan nan nan nan nan nan nan nan nan nan nan nan nan nan nan nan 2 2 8 13 18 18 23 23 23 24 23 24 24 26 22 24 24 23 20 20 18 18 21 24 24 25 32 36 36 40 50 60 60 66 56 28 0 0 nan nan nan nan 0 0 nan nan nan nan nan nan nan nan nan nan
nan nan nan nan nan nan nan nan nan nan nan nan nan nan nan nan nan nan nan nan nan nan nan nan nan nan nan nan nan nan nan nan nan nan 2 7 13 13 21 26 26 29 30 29 29 26 23 22 22 17 15 12 8 8 7 8 8 10 13 22 22 32 54 72 72 81 65 31 2 2 0 nan nan nan 1 0 nan nan nan nan nan nan nan 0 0 0
nan nan nan nan nan nan nan nan nan nan nan nan nan nan nan nan nan nan nan nan nan nan nan nan nan nan nan nan nan nan nan nan nan nan nan 3 8 8 15 20 20 22 25 23 23 18 13 7 7 4 3 2 2 2 1 3 3 6 13 19 19 25 39 53 53 57 42 13 1 1 3 1 2 2 4 2 0 0 nan nan nan 1 2 1 1 2
nan nan nan nan nan nan nan nan nan nan nan nan nan nan nan nan nan nan nan nan nan nan nan nan nan nan nan nan nan nan nan nan nan nan nan nan 0 0 3 9 9 9 14 13 13 10 7 3 3 1 0 0 nan nan 0 3 3 14 22 21 21 15 10 11 11 10 3 nan 1 1 3 5 6 6 10 10 6 6 4 4 4 6 7 6 6 5
nan nan nan nan nan nan nan nan nan nan nan nan nan nan nan nan nan nan nan nan nan nan nan nan nan nan nan nan nan nan nan nan nan nan nan nan nan nan nan nan nan 0 1 1 1 2 1 1 1 1 0 0 nan nan 1 8 8 23 26 15 15 5 1 0 0 nan nan nan nan nan 1 1 9 9 15 15 13 13 9 8 8 10 12 12 12 12
nan nan nan nan nan nan nan nan nan nan nan nan nan nan nan nan nan nan nan nan nan nan nan nan nan nan nan nan nan nan nan nan nan nan nan nan nan nan nan nan nan nan nan nan nan nan nan nan nan nan nan nan 1 1 3 15 15 21 13 3 3 nan nan nan nan nan nan nan nan nan nan nan 2 2 11 13 16 16 15 13 13 13 9 12 12 14
nan nan nan nan nan nan nan nan nan nan nan nan nan nan nan nan nan nan nan nan nan nan nan nan nan nan nan nan nan nan nan nan nan nan nan nan nan nan nan nan nan nan nan nan nan nan nan nan nan nan nan nan nan nan 5 11 11 8 2 nan nan nan nan nan nan nan nan nan nan nan nan nan nan nan 2 5 12 12 17 19 19 18 13 12 12 15
nan nan nan nan nan nan nan nan nan nan nan nan nan nan nan nan nan nan nan nan nan nan nan nan nan nan nan nan nan nan nan nan nan nan nan nan nan nan nan nan nan nan nan nan nan nan nan nan nan nan nan nan nan nan 0 nan nan nan nan nan nan nan nan nan nan nan nan nan nan nan nan nan nan nan nan nan nan nan 1 6 6 13 15 12 12 12
nan nan nan nan nan nan nan nan nan nan nan nan nan nan nan nan nan nan nan nan nan nan nan nan nan nan nan nan nan nan nan nan nan nan nan nan nan nan nan nan nan nan nan nan nan nan nan nan nan nan nan nan nan nan nan nan nan nan nan nan nan nan nan nan nan nan nan nan nan nan nan nan nan nan nan nan nan nan nan nan nan 1 3 4 4 5
nan nan nan nan nan nan nan nan nan nan nan nan nan nan nan nan nan nan nan nan nan nan nan nan nan nan nan nan nan nan nan nan nan nan nan nan nan nan nan nan nan nan nan nan nan nan nan nan nan nan nan nan nan nan nan nan nan nan nan nan nan nan nan nan nan nan nan nan nan nan nan nan nan nan nan nan nan nan nan nan nan nan nan 0 0 0
nan nan nan nan nan nan nan nan nan nan nan nan nan nan nan nan nan nan nan nan nan nan nan nan nan nan nan nan nan nan nan nan nan nan nan nan nan nan nan nan nan nan nan nan nan nan nan nan nan nan nan nan nan nan nan nan nan nan nan nan nan nan nan nan nan nan nan nan nan nan nan nan nan nan nan nan nan nan nan nan nan nan nan nan nan nan
nan nan nan nan nan nan nan nan nan nan nan nan nan nan nan nan nan nan nan nan nan nan nan nan nan nan nan nan nan nan nan nan nan nan nan nan nan nan nan nan nan nan nan nan nan nan nan nan nan nan nan nan nan nan nan nan nan nan nan nan nan nan nan nan nan nan nan nan nan nan nan nan nan nan nan nan nan nan nan nan nan nan nan nan nan nan
nan nan nan nan nan nan nan nan nan nan nan nan nan nan nan nan nan nan nan nan nan nan nan nan nan nan nan nan nan nan nan nan nan nan nan nan nan nan nan nan nan nan nan nan nan nan nan nan nan nan nan nan nan nan nan nan nan nan nan nan nan nan nan nan nan nan nan nan nan nan nan nan nan nan nan nan nan nan nan nan nan nan nan nan nan nan
1 nan nan nan nan nan nan nan nan nan nan nan nan nan nan nan nan nan nan nan nan nan nan nan nan nan nan nan nan nan nan nan nan nan nan nan nan nan nan nan nan nan nan nan nan nan nan nan nan nan nan nan nan nan nan nan nan nan nan nan nan nan 0 0 0 1 1 1 1 1 0 nan nan nan nan nan nan nan nan nan nan nan nan nan nan nan
1 2 2 0 0 nan nan nan nan nan nan nan nan nan nan nan nan nan nan nan nan nan nan nan nan nan nan nan nan nan nan nan nan nan nan nan nan nan nan nan nan nan nan nan nan nan nan nan nan nan nan nan nan nan nan nan nan 0 1 2 2 3 3 4 4 4 4 5 3 3 3 1 0 0 0 0 0 0 nan nan nan nan nan 0 0 0
1 2 3 3 3 2 0 nan nan nan nan nan nan nan nan nan nan nan nan nan nan nan nan nan nan nan nan nan nan nan nan nan nan nan nan nan nan nan nan nan nan nan nan nan nan nan nan nan nan nan nan nan nan nan nan 0 0 3 3 5 5 6 7 7 7 7 7 7 7 7 5 5 4 4 3 3 2 2 2 2 2 2 2 1 1 2
2 4 5 5 5 2 nan nan nan nan nan nan nan nan nan nan nan nan nan nan nan nan nan nan nan nan nan nan nan nan nan nan nan nan nan nan nan nan nan nan nan nan nan nan nan nan nan nan nan nan nan nan nan nan nan 0 0 1 4 5 5 6 7 8 8 10 10 10 9 9 8 9 8 8 7 7 6 6 5 6 6 6 6 5 5 4
5 6 8 7 7 4 nan nan nan nan nan nan nan nan nan nan nan nan nan nan nan nan nan nan nan nan nan nan nan nan nan nan nan nan nan nan nan nan nan nan nan nan nan nan nan nan nan nan nan nan nan nan nan nan nan nan nan 0 1 2 2 4 6 9 9 10 12 11 12 12 11 12 11 11 10 10 9 9 9 9 9 10 9 7 7 6
16 20 18 13 13 11 1 nan nan nan nan nan nan nan nan nan nan nan nan nan nan nan nan nan nan nan nan nan nan nan nan nan nan nan nan nan nan nan nan nan nan nan nan nan nan nan nan nan nan nan nan nan nan nan nan nan nan nan 0 2 2 3 7 9 9 14 15 15 15 15 15 15 15 15 13 12 11 11 12 13 13 12 9 8 8 9
19 19 18 10 10 9 8 0 nan nan nan nan 0 0 nan nan nan nan nan nan nan nan nan nan nan nan nan nan nan nan nan nan nan nan nan nan nan nan nan nan nan nan nan nan nan nan nan nan nan nan nan nan nan nan nan nan nan 0 1 4 4 6 11 15 15 18 19 19 19 19 19 17 17 17 14 14 14 14 14 14 14 14 12 12 12 12
2 2 2 1 1 4 8 1 nan nan 4 13 2 2 1 nan nan nan nan nan nan nan nan nan nan nan nan nan nan nan nan nan nan nan nan nan nan nan nan nan nan nan nan nan nan nan nan nan nan nan nan nan nan nan nan nan nan 1 4 6 6 10 14 17 17 22 23 23 24 24 23 20 17 17 16 17 17 17 18 17 17 15 15 15 15 15
nan 0 nan nan nan 0 13 2 1 1 8 3 1 1 3 2 3 3 0 0 0 nan nan 1 1 2 2 1 nan nan nan nan nan nan 0 0 nan nan nan nan nan nan nan nan nan nan nan nan nan nan nan nan nan nan nan 0 0 3 6 10 10 13 14 19 19 21 23 25 24 24 25 23 19 19 18 18 18 18 19 20 20 20 19 19 19 19
nan nan nan nan nan 2 9 1 1 1 11 4 6 6 5 4 3 3 1 0 0 nan 2 5 5 2 nan nan nan nan nan nan nan nan 1 4 6 6 nan nan nan nan nan nan nan nan nan nan nan nan nan 3 2 2 0 1 1 3 7 10 10 12 15 17 17 20 25 28 28 28 26 26 21 21 20 22 23 23 24 24 24 25 24 25 25 24
nan nan nan 5 5 10 19 22 17 17 24 27 17 17 4 2 1 1 1 2 2 12 15 11 11 0 nan nan nan nan nan nan nan nan 10 13 14 14 nan nan nan nan nan nan nan nan nan nan nan nan nan 1 4 4 6 4 4 4 5 9 9 9 13 17 17 21 25 31 33 33 35 31 28 28 27 29 29 29 27 30 30 31 30 29 29 28
nan 0 12 16 16 24 18 12 24 24 19 8 19 19 19 18 34 34 46 27 27 9 8 8 8 7 1 1 nan nan nan 4 nan nan 15 19 9 9 nan nan nan nan nan nan nan nan nan nan nan nan nan nan 5 5 10 13 13 16 17 16 16 16 18 22 22 25 33 42 45 45 45 39 38 38 36 36 37 37 41 42 42 39 36 33 33 29
6 11 11 17 17 29 30 28 26 26 17 3 1 1 1 4 0 0 nan nan nan nan nan nan nan 1 nan nan nan nan 2 nan nan nan 13 19 8 8 0 nan nan nan nan nan nan nan nan nan nan nan nan nan 6 6 12 23 23 30 31 29 29 32 34 38 38 44 52 54 54 54 51 46 43 43 43 43 47 47 51 50 50 44 38 34 34 29
18 17 21 21 21 20 20 22 24 24 29 19 2 2 nan nan nan nan nan nan nan nan nan 1 1 0 0 0 0 0 nan nan nan nan 3 nan nan nan nan nan nan nan nan nan nan nan nan nan nan nan nan nan nan nan 18 25 25 34 37 41 41 47 50 55 55 65 65 67 60 60 55 51 47 47 48 46 52 52 59 53 53 45 38 38 38 36
5 3 4 6 6 9 12 14 15 15 14 15 19 19 7 nan nan nan 1 nan nan nan 5 6 6 3 1 nan nan nan nan nan nan nan nan nan nan nan nan nan nan nan nan nan nan 0 9 10 10 1 nan nan nan nan 6 26 26 32 38 46 46 54 60 70 70 72 67 70 62 62 59 52 45 45 41 45 51 51 55 52 52 45 42 25 25 1
nan nan nan 1 1 4 6 7 6 6 7 9 14 14 6 nan 0 0 1 1 1 4 8 5 5 3 2 1 nan nan nan nan nan nan nan nan nan nan nan nan nan nan nan 0 0 nan nan nan nan nan nan nan nan nan nan 24 24 32 38 40 40 43 45 46 46 47 50 49 48 48 50 42 38 38 38 41 50 50 55 49 49 49 31 12 12 nan
nan nan nan nan nan 0 0 nan 0 0 4 8 12 12 5 nan nan nan 0 0 0 4 7 7 7 8 8 6 3 3 nan nan nan nan nan nan nan nan nan nan nan nan nan nan nan nan nan nan nan nan nan nan nan nan nan nan nan 0 6 28 28 22 21 20 20 22 24 28 33 33 35 34 31 31 33 41 47 47 53 53 53 34 4 nan nan nan
nan nan nan nan nan nan nan nan nan nan 2 6 6 6 0 nan nan nan nan nan nan 6 9 10 10 11 12 9 8 8 2 nan nan nan nan nan 3 3 nan nan nan nan nan nan nan nan nan nan nan nan nan nan nan nan nan nan nan nan nan nan nan nan 9 12 12 15 19 21 22 22 23 27 29 29 35 41 51 51 57 56 56 31 nan nan nan nan
nan nan nan nan nan nan nan nan nan nan nan nan nan nan nan nan nan nan nan nan nan 1 1 3 3 2 1 1 1 1 nan nan nan nan nan 0 0 0 0 nan nan nan nan nan nan nan nan nan nan nan nan nan nan nan nan nan nan nan nan nan nan nan 5 16 16 15 15 23 27 27 27 29 32 32 41 53 62 62 67 69 69 66 14 nan nan nan
nan nan nan nan nan nan nan nan nan nan nan nan nan nan nan nan nan nan nan nan nan nan nan nan nan 2 3 5 3 3 8 9 12 12 nan nan nan nan nan nan nan nan nan nan nan nan nan nan nan nan nan nan nan nan nan nan nan nan nan nan nan nan nan 3 3 1 5 10 13 13 27 32 36 36 40 50 60 60 69 72 72 77 59 nan nan nan
nan nan nan nan nan nan nan nan nan nan nan nan nan nan nan nan nan nan nan nan nan nan nan 3 3 8 5 3 2 2 0 nan nan nan 0 nan nan nan 1 nan nan nan nan nan nan nan nan nan nan 0 nan nan nan nan nan nan nan nan nan nan nan nan nan nan nan nan nan 0 nan nan nan 1 20 20 26 35 42 42 54 63 63 70 68 28 28 2
nan nan nan nan nan nan nan nan nan nan nan nan nan nan nan nan nan nan nan nan nan 0 2 3 3 3 1 0 0 0 nan nan nan nan 7 1 2 2 3 1 1 nan nan nan nan nan nan 0 0 3 0 nan nan nan nan nan nan nan nan nan nan nan nan nan nan nan nan nan nan nan nan nan nan nan 1 15 33 33 47 56 56 60 61 61 61 30
nan nan nan nan nan nan nan nan nan nan nan nan nan nan nan nan nan nan nan nan nan nan 1 nan nan nan nan 3 2 2 1 nan nan nan 10 6 4 4 4 5 5 2 0 nan nan nan nan nan nan 1 2 nan nan nan nan nan nan nan nan nan nan nan nan nan nan nan nan nan nan nan nan nan nan nan nan 18 36 36 41 45 45 49 47 51 51 43
nan nan nan nan nan nan nan nan nan nan nan nan nan nan 0 nan nan nan nan nan nan nan nan nan nan nan 1 nan nan nan nan nan nan nan 0 nan 2 2 5 7 7 7 1 1 1 nan nan nan nan nan 0 nan nan nan nan nan nan nan nan nan nan nan nan nan nan nan nan nan nan nan nan nan nan nan nan 18 18 18 31 40 40 40 45 45 45 44
nan nan nan nan nan nan nan nan nan nan nan 0 nan nan nan nan nan nan nan nan nan nan nan nan nan nan nan 0 nan nan nan nan nan nan nan nan nan nan 1 3 3 6 3 4 4 3 nan nan nan nan nan nan nan nan nan nan nan nan nan nan nan nan nan nan nan nan nan nan nan nan nan nan nan nan nan nan nan nan nan nan nan 6 26 23 23 36
nan nan nan nan nan nan nan nan nan nan nan nan nan nan nan nan nan nan nan nan nan nan nan nan nan nan nan nan nan nan nan nan nan nan nan nan nan nan nan 0 0 2 1 nan nan nan nan nan nan nan nan nan nan nan nan nan nan nan nan nan nan nan nan nan nan nan nan nan nan nan nan nan nan nan nan nan nan nan nan nan nan nan nan nan nan 6
nan nan nan nan nan nan nan nan nan nan nan nan nan nan nan nan nan nan nan nan nan nan nan nan nan nan nan nan nan nan nan nan nan nan nan nan nan nan nan nan nan 0 1 0 0 nan nan nan nan 0 1 0 nan nan nan nan nan 0 2 nan nan nan 0 nan nan nan nan nan nan nan nan nan nan nan nan nan nan nan nan nan nan nan nan nan nan nan
nan nan nan nan nan nan nan nan nan nan nan nan nan nan nan nan nan nan nan nan nan nan nan nan nan nan nan nan nan nan nan nan nan nan nan nan nan nan nan 2 2 8 11 4 4 2 5 3 3 3 2 2 2 2 2 1 1 7 10 1 1 nan nan 1 1 nan nan nan nan nan nan nan nan nan nan nan nan nan nan nan nan nan nan nan nan nan
2 0 nan nan nan nan nan nan nan nan nan nan nan nan nan nan nan nan nan nan nan nan nan nan nan nan nan nan nan nan nan nan nan nan nan nan nan nan nan nan nan 0 nan nan nan nan 1 5 5 4 2 2 0 0 1 2 2 4 6 1 1 1 3 2 2 nan nan nan nan nan 0 0 nan nan nan nan nan nan nan nan nan nan nan nan nan nan
nan nan nan nan nan nan nan nan 0 0 nan nan nan nan nan nan nan nan nan nan nan nan nan nan nan nan nan nan nan nan nan nan nan nan nan nan nan nan nan nan nan nan nan nan nan nan 0 3 3 1 2 1 0 0 1 2 2 2 2 5 5 4 0 nan nan nan nan nan nan nan nan nan nan nan nan nan nan nan nan 3 3 15 16 0 0 nan
nan nan nan nan nan nan nan nan nan nan nan nan nan nan nan nan nan nan nan nan nan nan nan nan nan nan nan nan nan nan nan nan nan nan nan nan nan nan nan nan nan nan nan nan nan nan 0 2 2 0 1 0 nan nan nan 0 0 0 nan 2 2 3 2 0 0 nan nan nan nan nan nan nan nan nan nan nan nan nan nan 0 0 0 12 6 6 2
nan nan nan nan nan nan nan nan nan nan nan nan nan nan nan nan nan nan nan nan nan nan nan nan nan nan nan nan nan nan nan nan nan nan nan nan 7 7 nan nan nan nan nan nan nan 0 0 0 0 0 nan nan nan nan nan 0 0 0 1 1 1 2 nan 0 0 0 nan nan nan nan 0 0 0 0 nan nan nan nan 0 0 0 0 1 4 4 4
nan nan nan nan nan nan nan nan nan nan nan nan nan nan nan nan nan nan nan nan nan nan nan nan nan nan nan nan nan nan nan nan nan nan nan nan nan nan nan nan nan nan nan nan nan nan nan nan nan nan nan nan nan nan nan nan nan nan 0 1 1 nan nan nan nan nan 0 1 0 0 nan 2 1 1 3 2 1 1 0 0 0 1 nan 0 0 3
nan nan nan nan nan nan nan nan nan nan nan nan nan nan nan nan nan nan nan nan nan nan nan nan nan nan nan nan nan nan nan nan nan nan nan nan nan nan nan nan nan nan nan nan nan nan nan nan nan nan nan nan nan nan nan nan nan nan nan nan nan nan nan nan nan nan nan 0 1 1 0 2 6 6 8 6 4 4 3 1 1 1 0 0 0 3
nan nan nan nan nan nan nan nan nan nan nan nan nan nan nan nan nan nan nan nan nan nan nan nan nan nan nan nan nan nan nan nan nan nan nan nan nan nan nan nan nan nan nan nan nan nan nan nan nan nan nan nan nan nan nan nan nan nan nan nan nan nan nan nan nan nan nan nan nan nan 0 2 5 5 9 9 9 9 7 3 3 0 0 1 1 2
nan nan nan nan nan nan nan nan nan nan nan nan nan nan nan nan 9 9 nan nan nan nan nan nan nan nan nan nan nan nan nan nan nan nan nan nan nan nan nan nan nan nan nan nan nan nan nan nan nan nan nan nan nan nan nan nan nan nan nan nan nan nan nan nan nan nan nan nan nan nan nan 1 2 2 5 6 8 8 5 6 6 1 0 0 0 2
nan nan nan nan nan nan nan nan nan nan nan nan nan nan nan nan nan nan nan nan nan nan nan nan nan nan nan nan nan nan nan nan nan nan nan nan nan nan nan nan nan nan nan nan nan nan nan nan nan nan 3 0 nan nan nan nan nan nan nan nan nan nan nan nan nan nan nan nan nan nan nan nan 0 0 0 2 4 4 3 3 3 1 nan nan nan nan
nan nan nan nan nan nan nan nan nan nan nan nan nan nan nan nan nan nan nan nan nan nan nan nan nan nan nan nan nan nan nan nan nan nan nan nan nan nan nan nan nan nan nan nan nan nan nan nan nan nan 2 16 2 2 nan nan nan nan nan nan nan nan nan nan nan nan 0 nan nan nan nan nan nan nan nan 0 2 2 1 1 1 nan nan nan nan nan
CIN
nan nan nan nan nan nan nan nan nan nan nan nan nan nan nan nan nan nan nan nan nan nan nan nan nan nan nan nan nan nan nan nan -0 -0 -0 -0 -0 -0 -0 -0 -0 -0 -0 -0 -0 -0 -0 -0 -0 -0 -0 -0 -0 -0 -0 -0 -0 -0 -0 -0 -0 -0 -0 -0 -0 -0 -0 -0 -1 -1 nan nan nan nan -19 -18 nan nan nan nan nan nan nan nan nan nan
nan nan nan nan nan nan nan nan nan nan nan nan nan nan nan nan nan nan nan nan nan nan nan nan nan nan nan nan nan nan nan nan nan nan -0 -0 -0 -0 -0 -0 -0 -0 -0 -0 -0 -0 -0 -0 -0 -0 -0 -0 -0 -0 -0 -0 -0 -0 -0 -0 -0 -0 -0 -0 -0 -0 -0 -0 -0 -0 -1 nan nan nan -13 -10 nan nan nan nan nan nan nan -0 -0 -0
nan nan nan nan nan nan nan nan nan nan nan nan nan nan nan nan nan nan nan nan nan nan nan nan nan nan nan nan nan nan nan nan nan nan nan -0 -0 -0 -0 -0 -0 -0 -0 -0 -0 -0 -0 -0 -0 -0 -0 -0 -0 -0 -0 -0 -0 -0 -0 -0 -0 -0 -0 -0 -0 -0 -0 -0 -0 -0 -1 -3 -6 -6 -4 -3 -2 -2 nan nan nan -0 -0 -0 -0 -0
nan nan nan nan nan nan nan nan nan nan nan nan nan nan nan nan nan nan nan nan nan nan nan nan nan nan nan nan nan nan nan nan nan nan nan nan -0 -0 -0 -0 -0 -0 -0 -0 -0 -0 -0 -0 -0 -0 -0 -0 nan nan -0 -0 -0 -0 -0 -2 -2 -6 -11 -11 -11 -11 -12 nan -2 -2 -0 -0 -0 -0 -1 -0 -0 -0 -0 -0 -0 -0 -0 -0 -0 -0
nan nan nan nan nan nan nan nan nan nan nan nan nan nan nan nan nan nan nan nan nan nan nan nan nan nan nan nan nan nan nan nan nan nan nan nan nan nan nan nan nan -6 -0 -4 -4 -0 -0 -0 -0 -0 -0 -0 nan nan -0 -0 -0 -0 -2 -6 -6 -17 -33 -38 -38 nan nan nan nan nan -0 -1 -0 -0 -0 -0 -0 -0 -0 -0 -0 -0 -0 -0 -0 -0
nan nan nan nan nan nan nan nan nan nan nan nan nan nan nan nan nan nan nan nan nan nan nan nan nan nan nan nan nan nan nan nan nan nan nan nan nan nan nan nan nan nan nan nan nan nan nan nan nan nan nan nan -0 -0 -0 -1 -1 -2 -3 -12 -12 nan nan nan nan nan nan nan nan nan nan nan -2 -2 -0 -0 -0 -0 -0 -0 -0 -0 -0 -0 -0 -0
nan nan nan nan nan nan nan nan nan nan nan nan nan nan nan nan nan nan nan nan nan nan nan nan nan nan nan nan nan nan nan nan nan nan nan nan nan nan nan nan nan nan nan nan nan nan nan nan nan nan nan nan nan nan -0 -0 -0 -2 -5 nan nan nan nan nan nan nan nan nan nan nan nan nan nan nan -0 -0 -0 -0 -0 -0 -0 -0 -0 -0 -0 -0
nan nan nan nan nan nan nan nan nan nan nan nan nan nan nan nan nan nan nan nan nan nan nan nan nan nan nan nan nan nan nan nan nan nan nan nan nan nan nan nan nan nan nan nan nan nan nan nan nan nan nan nan nan nan -0 nan nan nan nan nan nan nan nan nan nan nan nan nan nan nan nan nan nan nan nan nan nan nan -0 -0 -0 -0 -0 -0 -0 -0
nan nan nan nan nan nan nan nan nan nan nan nan nan nan nan nan nan nan nan nan nan nan nan nan nan nan nan nan nan nan nan nan nan nan nan nan nan nan nan nan nan nan nan nan nan nan nan nan nan nan nan nan nan nan nan nan nan nan nan nan nan nan nan nan nan nan nan nan nan nan nan nan nan nan nan nan nan nan nan nan nan -0 -0 -0 -0 -0
nan nan nan nan nan nan nan nan nan nan nan nan nan nan nan nan nan nan nan nan nan nan nan nan nan nan nan nan nan nan nan nan nan nan nan nan nan nan nan nan nan nan nan nan nan nan nan nan nan nan nan nan nan nan nan nan nan nan nan nan nan nan nan nan nan nan nan nan nan nan nan nan nan nan nan nan nan nan nan nan nan nan nan -0 -0 -0
nan nan nan nan nan nan nan nan nan nan nan nan nan nan nan nan nan nan nan nan nan nan nan nan nan nan nan nan nan nan nan nan nan nan nan nan nan nan nan nan nan nan nan nan nan nan nan nan nan nan nan nan nan nan nan nan nan nan nan nan nan nan nan nan nan nan nan nan nan nan nan nan nan nan nan nan nan nan nan nan nan nan nan nan nan nan
nan nan nan nan nan nan nan nan nan nan nan nan nan nan nan nan nan nan nan nan nan nan nan nan nan nan nan nan nan nan nan nan nan nan nan nan nan nan nan nan nan nan nan nan nan nan nan nan nan nan nan nan nan nan nan nan nan nan nan nan nan nan nan nan nan nan nan nan nan nan nan nan nan nan nan nan nan nan nan nan nan nan nan nan nan nan
nan nan nan nan nan nan nan nan nan nan nan nan nan nan nan nan nan nan nan nan nan nan nan nan nan nan nan nan nan nan nan nan nan nan nan nan nan nan nan nan nan nan nan nan nan nan nan nan nan nan nan nan nan nan nan nan nan nan nan nan nan nan nan nan nan nan nan nan nan nan nan nan nan nan nan nan nan nan nan nan nan nan nan nan nan nan
-7 nan nan nan nan nan nan nan nan nan nan nan nan nan nan nan nan nan nan nan nan nan nan nan nan nan nan nan nan nan nan nan nan nan nan nan nan nan nan nan nan nan nan nan nan nan nan nan nan nan nan nan nan nan nan nan nan nan nan nan nan nan -0 -0 -0 -0 -0 -0 -0 -0 -0 nan nan nan nan nan nan nan nan nan nan nan nan nan nan nan
-8 -9 -8 -13 -13 nan nan nan nan nan nan nan nan nan nan nan nan nan nan nan nan nan nan nan nan nan nan nan nan nan nan nan nan nan nan nan nan nan nan nan nan nan nan nan nan nan nan nan nan nan nan nan nan nan nan nan nan -0 -0 -0 -0 -0 -0 -0 -0 -0 -0 -0 -0 -0 -0 -0 -0 -0 -0 -0 -0 -0 nan nan nan nan nan -0 -0 -0
-10 -10 -7 -6 -6 -7 -13 nan nan nan nan nan nan nan nan nan nan nan nan nan nan nan nan nan nan nan nan nan nan nan nan nan nan nan nan nan nan nan nan nan nan nan nan nan nan nan nan nan nan nan nan nan nan nan nan -0 -0 -0 -0 -0 -0 -0 -0 -0 -0 -0 -0 -0 -0 -0 -0 -0 -0 -0 -0 -0 -0 -0 -0 -0 -0 -0 -0 -0 -0 -0
-13 -11 -8 -8 -8 -7 nan nan nan nan nan nan nan nan nan nan nan nan nan nan nan nan nan nan nan nan nan nan nan nan nan nan nan nan nan nan nan nan nan nan nan nan nan nan nan nan nan nan nan nan nan nan nan nan nan -0 -0 -0 -0 -0 -0 -0 -0 -0 -0 -0 -0 -0 -0 -0 -0 -0 -0 -0 -0 -0 -0 -0 -0 -0 -0 -0 -0 -0 -0 -0
-9 -8 -8 -7 -7 -5 nan nan nan nan nan nan nan nan nan nan nan nan nan nan nan nan nan nan nan nan nan nan nan nan nan nan nan nan nan nan nan nan nan nan nan nan nan nan nan nan nan nan nan nan nan nan nan nan nan nan nan -0 -0 -0 -0 -0 -0 -0 -0 -0 -0 -0 -0 -0 -0 -0 -0 -0 -0 -0 -0 -0 -0 -0 -0 -0 -0 -0 -0 -0
-1 -2 -2 -2 -2 -2 -15 nan nan nan nan nan nan nan nan nan nan nan nan nan nan nan nan nan nan nan nan nan nan nan nan nan nan nan nan nan nan nan nan nan nan nan nan nan nan nan nan nan nan nan nan nan nan nan nan nan nan nan -0 -0 -0 -0 -0 -0 -0 -0 -0 -0 -0 -0 -0 -0 -0 -0 -0 -0 -0 -0 -0 -0 -0 -0 -0 -0 -0 -0
-0 -1 -1 -2 -2 -2 -3 -16 nan nan nan nan -13 -13 nan nan nan nan nan nan nan nan nan nan nan nan nan nan nan nan nan nan nan nan nan nan nan nan nan nan nan nan nan nan nan nan nan nan nan nan nan nan nan nan nan nan nan -0 -0 -0 -0 -0 -0 -0 -0 -0 -0 -0 -0 -0 -0 -0 -0 -0 -0 -0 -0 -0 -0 -0 -0 -0 -0 -0 -0 -0
-0 -1 -5 -5 -5 -1 -0 -8 nan nan -7 -2 -10 -10 -13 nan nan nan nan nan nan nan nan nan nan nan nan nan nan nan nan nan nan nan nan nan nan nan nan nan nan nan nan nan nan nan nan nan nan nan nan nan nan nan nan nan nan -0 -0 -0 -0 -0 -0 -0 -0 -0 -0 -0 -0 -0 -0 -0 -0 -0 -0 -0 -0 -0 -0 -0 -0 -0 -0 -0 -0 -0
nan -3 nan nan nan -6 -0 -9 -15 -15 -8 -14 -19 -19 -18 -21 -23 -23 -36 -48 -48 nan nan -20 -20 -18 -19 -17 nan nan nan nan nan nan -11 -7 nan nan nan nan nan nan nan nan nan nan nan nan nan nan nan nan nan nan nan -0 -0 -0 -0 -0 -0 -0 -0 -0 -0 -0 -0 -0 -0 -0 -0 -0 -0 -0 -0 -0 -0 -0 -0 -0 -0 -0 -0 -0 -0 -0
nan nan nan nan nan -13 -5 -23 -24 -24 -12 -21 -20 -20 -24 -26 -26 -26 -33 -35 -35 nan -15 -12 -12 -20 nan nan nan nan nan nan nan nan -12 -4 -3 -3 nan nan nan nan nan nan nan nan nan nan nan nan nan -1 -0 -0 -0 -0 -0 -0 -0 -0 -0 -0 -0 -0 -0 -0 -0 -0 -0 -0 -0 -0 -0 -0 -0 -0 -0 -0 -0 -0 -0 -0 -0 -0 -0 -0
nan nan nan -15 -15 -9 -8 -7 -10 -10 -8 -4 -6 -6 -20 -26 -30 -30 -29 -10 -10 -3 -3 -6 -6 -16 nan nan nan nan nan nan nan nan -4 -2 -2 -2 nan nan nan nan nan nan nan nan nan nan nan nan nan -6 -0 -0 -0 -0 -0 -0 -0 -0 -0 -0 -0 -0 -0 -0 -0 -0 -0 -0 -0 -0 -0 -0 -0 -0 -0 -0 -0 -0 -0 -0 -0 -0 -0 -0
nan -30 -10 -8 -8 -4 -7 -12 -9 -9 -13 -19 -16 -16 -14 -10 -4 -4 -4 -4 -4 -7 -6 -5 -5 -5 -12 -20 nan nan nan -50 nan nan -7 -3 -7 -7 nan nan nan nan nan nan nan nan nan nan nan nan nan nan -2 -2 -0 -0 -0 -0 -0 -0 -0 -0 -0 -0 -0 -0 -0 -0 -0 -0 -0 -0 -0 -0 -0 -0 -0 -0 -0 -0 -0 -0 -0 -0 -0 -0
-11 -2 -0 -0 -0 -0 -0 -0 -0 -0 -0 -11 -15 -15 -21 -17 -22 -22 nan nan nan nan nan nan nan -4 nan nan nan nan -29 nan nan nan -17 -4 -8 -8 -31 nan nan nan nan nan nan nan nan nan nan nan nan nan -5 -5 -1 -0 -0 -0 -0 -0 -0 -0 -0 -0 -0 -0 -0 -0 -0 -0 -0 -0 -0 -0 -0 -0 -0 -0 -0 -0 -0 -0 -0 -0 -0 -0
-0 -0 -0 -0 -0 -0 -0 -0 -0 -0 -0 -0 -2 -2 nan nan nan nan nan nan nan nan nan -6 -6 -9 -10 -8 -6 -6 nan nan nan nan -31 nan nan nan nan nan nan nan nan nan nan nan nan nan nan nan nan nan nan nan -3 -0 -0 -0 -0 -0 -0 -0 -0 -0 -0 -0 -0 -0 -0 -0 -0 -0 -0 -0 -0 -0 -0 -0 -0 -0 -0 -0 -0 -0 -0 -0
-0 -0 -0 -0 -0 -0 -0 -0 -0 -0 -0 -0 -0 -0 -0 nan nan nan -3 nan nan nan -3 -1 -1 -3 -4 nan nan nan nan nan nan nan nan nan nan nan nan nan nan nan nan nan nan -46 -19 -18 -18 -35 nan nan nan nan -20 -3 -3 -1 -0 -0 -0 -0 -0 -0 -0 -0 -0 -0 -0 -0 -0 -0 -0 -0 -0 -0 -0 -0 -0 -0 -0 -0 -0 -11 -11 -40
nan nan nan -0 -0 -0 -0 -0 -0 -0 -0 -0 -0 -0 -0 nan -7 -7 -3 -8 -8 -4 -0 -0 -0 -1 -2 -5 nan nan nan nan nan nan nan nan nan nan nan nan nan nan nan -28 -28 nan nan nan nan nan nan nan nan nan nan -8 -8 -3 -1 -0 -0 -0 -0 -0 -0 -0 -0 -0 -0 -0 -0 -0 -0 -0 -0 -0 -0 -0 -0 -0 -0 -0 -6 -28 -28 nan
nan nan nan nan nan -0 -0 nan -0 -0 -0 -0 -0 -0 -0 nan nan nan -8 -13 -13 -3 -0 -0 -0 -0 -3 -5 -8 -8 nan nan nan nan nan nan nan nan nan nan nan nan nan nan nan nan nan nan nan nan nan nan nan nan nan nan nan -66 -36 -6 -6 -6 -3 -2 -2 -1 -0 -0 -0 -0 -0 -0 -0 -0 -0 -0 -0 -0 -0 -0 -0 -4 -36 nan nan nan
nan nan nan nan nan nan nan nan nan nan -0 -0 -0 -0 -0 nan nan nan nan nan nan -2 -0 -0 -0 -0 -0 -1 -0 -0 -8 nan nan nan nan nan -4 -4 nan nan nan nan nan nan nan nan nan nan nan nan nan nan nan nan nan nan nan nan nan nan nan nan -9 -3 -3 -1 -0 -0 -0 -0 -0 -0 -0 -0 -0 -0 -0 -0 -0 -0 -0 -4 nan nan nan nan
nan nan nan nan nan nan nan nan nan nan nan nan nan nan nan nan nan nan nan nan nan -12 -10 -5 -5 -6 -10 -5 -2 -2 nan nan nan nan nan -1 -0 -0 -8 nan nan nan nan nan nan nan nan nan nan nan nan nan nan nan nan nan nan nan nan nan nan nan -11 -1 -1 -0 -0 -0 -0 -0 -0 -0 -0 -0 -0 -0 -0 -0 -0 -0 -0 -0 -28 nan nan nan
nan nan nan nan nan nan nan nan nan nan nan nan nan nan nan nan nan nan nan nan nan nan nan nan nan -4 -5 -4 -4 -4 -3 -7 -0 -0 nan nan nan nan nan nan nan nan nan nan nan nan nan nan nan nan nan nan nan nan nan nan nan nan nan nan nan nan nan -22 -22 -26 -13 -5 -3 -3 -0 -0 -0 -0 -0 -0 -0 -0 -0 -0 -0 -0 -2 nan nan nan
nan nan nan nan nan nan nan nan nan nan nan nan nan nan nan nan nan nan nan nan nan nan nan -3 -3 -0 -0 -1 -0 -0 -2 nan nan nan -2 nan nan nan -4 nan nan nan nan nan nan nan nan nan nan -8 nan nan nan nan nan nan nan nan nan nan nan nan nan nan nan nan nan -43 nan nan nan -29 -0 -0 -0 -0 -0 -0 -0 -0 -0 -0 -0 -13 -13 -36
nan nan nan nan nan nan nan nan nan nan nan nan nan nan nan nan nan nan nan nan nan -22 -11 -6 -6 -5 -3 -3 -1 -1 nan nan nan nan -0 -6 -3 -3 -1 -3 -3 nan nan nan nan nan nan -6 -6 -2 -5 nan nan nan nan nan nan nan nan nan nan nan nan nan nan nan nan nan nan nan nan nan nan nan -24 -1 -0 -0 -0 -0 -0 -0 -0 -0 -0 -5
nan nan nan nan nan nan nan nan nan nan nan nan nan nan nan nan nan nan nan nan nan nan -9 nan nan nan nan -2 -1 -1 -0 nan nan nan -0 -4 -3 -3 -1 -1 -1 -3 -3 nan nan nan nan nan nan -3 -0 nan nan nan nan nan nan nan nan nan nan nan nan nan nan nan nan nan nan nan nan nan nan nan nan -0 -0 -0 -0 -0 -0 -0 -0 -0 -0 -0
nan nan nan nan nan nan nan nan nan nan nan nan nan nan -15 nan nan nan nan nan nan nan nan nan nan nan -8 nan nan nan nan nan nan nan -8 nan -5 -5 -1 -0 -0 -0 -3 -2 -2 nan nan nan nan nan -3 nan nan nan nan nan nan nan nan nan nan nan nan nan nan nan nan nan nan nan nan nan nan nan nan -0 -0 -0 -0 -0 -0 -0 -0 -0 -0 -0
nan nan nan nan nan nan nan nan nan nan nan -6 nan nan nan nan nan nan nan nan nan nan nan nan nan nan nan -2 nan nan nan nan nan nan nan nan nan nan -1 -1 -1 -1 -2 -2 -2 -2 nan nan nan nan nan nan nan nan nan nan nan nan nan nan nan nan nan nan nan nan nan nan nan nan nan nan nan nan nan nan nan nan nan nan nan -0 -0 -0 -0 -0
nan nan nan nan nan nan nan nan nan nan nan nan nan nan nan nan nan nan nan nan nan nan nan nan nan nan nan nan nan nan nan nan nan nan nan nan nan nan nan -3 -3 -3 -5 nan nan nan nan nan nan nan nan nan nan nan nan nan nan nan nan nan nan nan nan nan nan nan nan nan nan nan nan nan nan nan nan nan nan nan nan nan nan nan nan nan nan -1
nan nan nan nan nan nan nan nan nan nan nan nan nan nan nan nan nan nan nan nan nan nan nan nan nan nan nan nan nan nan nan nan nan nan nan nan nan nan nan nan nan -4 -5 -8 -8 nan nan nan nan -4 -2 -5 nan nan nan nan nan -11 -3 nan nan nan -13 nan nan nan nan nan nan nan nan nan nan nan nan nan nan nan nan nan nan nan nan nan nan nan
nan nan nan nan nan nan nan nan nan nan nan nan nan nan nan nan nan nan nan nan nan nan nan nan nan nan nan nan nan nan nan nan nan nan nan nan nan nan nan -3 -3 -0 -1 -4 -4 -3 -1 -2 -2 -2 -3 -4 -2 -2 -2 -5 -5 -0 -0 -4 -4 nan nan -12 -12 nan nan nan nan nan nan nan nan nan nan nan nan nan nan nan nan nan nan nan nan nan
-0 -0 nan nan nan nan nan nan nan nan nan nan nan nan nan nan nan nan nan nan nan nan nan nan nan nan nan nan nan nan nan nan nan nan nan nan nan nan nan nan nan -8 nan nan nan nan -3 -1 -1 -1 -3 -4 -4 -4 -4 -3 -3 -0 -0 -5 -5 -9 -5 -8 -8 nan nan nan nan nan -17 -16 nan nan nan nan nan nan nan nan nan nan nan nan nan nan
nan nan nan nan nan nan nan nan -6 -6 nan nan nan nan nan nan nan nan nan nan nan nan nan nan nan nan nan nan nan nan nan nan nan nan nan nan nan nan nan nan nan nan nan nan nan nan -5 -1 -1 -3 -4 -4 -4 -4 -3 -3 -3 -3 -4 -2 -2 -3 -5 nan nan nan nan nan nan nan nan nan nan nan nan nan nan nan nan -15 -15 -2 -1 -21 -21 nan
nan nan nan nan nan nan nan nan nan nan nan nan nan nan nan nan nan nan nan nan nan nan nan nan nan nan nan nan nan nan nan nan nan nan nan nan nan nan nan nan nan nan nan nan nan nan -6 -2 -2 -5 -5 -6 nan nan nan -5 -5 -6 nan -5 -5 -3 -2 -7 -7 nan nan nan nan nan nan nan nan nan nan nan nan nan nan -22 -22 -24 -7 -14 -14 -18
nan nan nan nan nan nan nan nan nan nan nan nan nan nan nan nan nan nan nan nan nan nan nan nan nan nan nan nan nan nan nan nan nan nan nan nan -0 -0 nan nan nan nan nan nan nan -4 -3 -4 -4 -5 nan nan nan nan nan -4 -4 -4 -3 -4 -4 -3 nan -8 -8 -12 nan nan nan nan -21 -26 -21 -21 nan nan nan nan -18 -19 -19 -21 -22 -17 -17 -17
nan nan nan nan nan nan nan nan nan nan nan nan nan nan nan nan nan nan nan nan nan nan nan nan nan nan nan nan nan nan nan nan nan nan nan nan nan nan nan nan nan nan nan nan nan nan nan nan nan nan nan nan nan nan nan nan nan nan -4 -1 -1 nan nan nan nan nan -12 -7 -15 -15 nan -20 -15 -15 -8 -10 -14 -14 -18 -18 -18 -17 nan -24 -24 -17
nan nan nan nan nan nan nan nan nan nan nan nan nan nan nan nan nan nan nan nan nan nan nan nan nan nan nan nan nan nan nan nan nan nan nan nan nan nan nan nan nan nan nan nan nan nan nan nan nan nan nan nan nan nan nan nan nan nan nan nan nan nan nan nan nan nan nan -8 -9 -9 -19 -15 -6 -6 -4 -6 -10 -10 -13 -17 -17 -19 -23 -20 -20 -15
nan nan nan nan nan nan nan nan nan nan nan nan nan nan nan nan nan nan nan nan nan nan nan nan nan nan nan nan nan nan nan nan nan nan nan nan nan nan nan nan nan nan nan nan nan nan nan nan nan nan nan nan nan nan nan nan nan nan nan nan nan nan nan nan nan nan nan nan nan nan -16 -8 -3 -3 -3 -4 -6 -6 -8 -16 -16 -32 -31 -20 -20 -14
nan nan nan nan nan nan nan nan nan nan nan nan nan nan nan nan -0 -0 nan nan nan nan nan nan nan nan nan nan nan nan nan nan nan nan nan nan nan nan nan nan nan nan nan nan nan nan nan nan nan nan nan nan nan nan nan nan nan nan nan nan nan nan nan nan nan nan nan nan nan nan nan -7 -5 -5 -3 -3 -3 -3 -6 -10 -10 -24 -36 -31 -31 -19
nan nan nan nan nan nan nan nan nan nan nan nan nan nan nan nan nan nan nan nan nan nan nan nan nan nan nan nan nan nan nan nan nan nan nan nan nan nan nan nan nan nan nan nan nan nan nan nan nan nan -0 -0 nan nan nan nan nan nan nan nan nan nan nan nan nan nan nan nan nan nan nan nan -9 -9 -5 -2 -2 -2 -4 -7 -7 -17 nan nan nan nan
nan nan nan nan nan nan nan nan nan nan nan nan nan nan nan nan nan nan nan nan nan nan nan nan nan nan nan nan nan nan nan nan nan nan nan nan nan nan nan nan nan nan nan nan nan nan nan nan nan nan -8 -0 -0 -0 nan nan nan nan nan nan nan nan nan nan nan nan -6 nan nan nan nan nan nan nan nan -2 -2 -2 -4 -6 -6 nan nan nan nan nan
Wind_Speed
2 2 3 4 4 4 3 4 5 5 5 5 5 5 4 5 4 4 5 5 4 4 4 4 4 5 6 7 9 10 10 10 10 10 10 10 10 10 10 10 10 10 10 10 11 11 12 12 12 12 13 13 13 14 15 15 15 15 16 16 17 18 19 20 20 20 19 19 19 18 18 17 17 15 13 10 9 8 9 10 10 11 11 11 12 13
2 2 2 4 4 4 3 4 5 5 6 6 6 6 6 6 5 4 4 5 5 4 4 4 5 5 6 7 9 10 11 11 11 11 11 11 11 11 11 11 11 11 11 11 11 12 12 12 13 13 13 13 14 14 15 15 15 15 15 15 15 15 15 16 16 17 17 17 17 16 16 16 14 13 11 10 10 10 10 11 11 11 11 12 12 13
3 3 3 3 4 4 4 4 4 5 5 6 6 6 7 6 5 5 4 5 5 5 4 4 5 5 5 6 8 10 11 12 12 12 12 11 11 11 12 12 12 12 12 12 13 13 13 14 14 14 14 15 15 16 16 15 15 14 13 12 11 11 11 12 13 13 13 14 14 14 13 13 12 11 11 11 11 11 12 12 12 12 12 12 13 13
3 3 3 3 3 3 3 4 4 4 4 5 5 6 6 5 5 5 4 5 5 5 5 5 5 5 4 5 7 9 11 13 13 14 14 13 12 12 12 12 12 12 13 13 13 14 14 14 15 15 16 16 16 17 16 15 14 12 10 9 8 8 8 9 10 10 11 11 11 11 11 11 11 11 11 12 12 13 13 13 13 13 13 13 13 13
3 3 3 3 3 3 3 4 4 4 4 4 5 5 5 5 5 5 5 5 5 5 5 5 5 5 4 4 6 9 12 14 15 15 15 15 14 14 13 13 13 13 14 14 14 14 14 15 15 15 16 16 17 17 16 14 13 10 8 7 7 7 7 8 9 9 10 10 10 10 11 11 11 11 11 12 13 13 13 14 14 14 14 14 14 14
2 2 3 2 3 3 3 3 3 4 4 4 4 4 4 4 4 5 5 5 5 5 5 4 4 5 5 5 7 10 13 14 15 15 15 15 15 15 15 15 15 15 15 15 15 15 15 15 15 16 16 16 16 16 15 13 12 10 8 7 7 7 8 8 9 9 10 10 10 10 10 11 11 11 11 12 12 13 14 14 14 15 15 15 14 15
2 2 2 2 2 2 2 3 3 3 3 3 4 4 4 4 4 4 4 4 4 4 4 4 4 4 5 6 8 10 11 13 13 14 15 15 15 15 15 15 15 15 16 16 16 16 16 16 16 16 17 16 16 15 14 13 12 10 9 8 8 8 9 9 10 10 11 11 11 11 11 11 11 11 11 12 12 13 13 14 14 15 15 15 15 15
3 2 2 2 2 2 2 2 2 2 3 3 4 4 5 4 4 4 4 4 3 3 4 4 4 4 4 5 6 8 8 9 10 10 11 12 13 13 14 15 15 16 16 16 16 16 16 17 16 16 16 16 15 14 13 13 12 11 10 10 10 10 10 11 11 12 12 12 12 12 12 12 12 12 12 12 12 12 13 13 14 14 15 15 15 15
3 3 2 2 2 3 3 3 2 2 2 3 3 4 5 5 5 4 4 3 3 2 3 4 4 5 4 4 4 5 7 8 8 8 9 9 9 10 12 14 15 15 15 16 16 16 16 16 16 15 15 14 14 13 13 13 13 12 12 11 11 12 12 13 13 14 14 14 14 14 14 14 13 13 13 13 13 13 13 13 14 14 15 15 15 15
3 3 3 3 2 2 3 3 3 2 2 2 2 3 4 4 5 5 5 4 3 3 2 3 5 6 5 4 4 5 7 8 10 11 12 11 12 12 13 13 12 13 14 15 15 15 15 15 15 14 14 14 14 14 14 14 14 14 13 13 13 13 14 14 15 15 16 16 16 15 15 15 15 15 15 14 14 14 14 14 14 14 15 15 15 16
3 3 3 3 2 2 2 3 3 2 2 2 2 2 2 2 3 5 7 6 6 4 3 3 4 5 6 6 5 5 6 7 8 9 11 12 13 14 13 12 11 12 13 13 13 14 14 14 14 14 15 15 15 15 15 15 15 15 15 15 15 15 16 16 17 17 17 17 17 17 17 17 16 16 16 16 16 16 15 15 15 15 16 16 16 17
3 3 3 3 3 3 2 2 2 2 2 3 3 3 3 2 2 3 5 7 7 6 5 4 4 4 5 5 5 6 6 6 6 6 6 7 8 8 8 8 8 9 9 10 10 11 12 13 14 14 14 15 15 16 16 16 16 16 16 16 17 17 17 17 18 18 18 18 18 18 18 18 18 17 17 17 17 17 17 17 17 17 17 17 17 18
3 3 3 3 3 3 3 3 3 3 2 3 3 4 4 3 2 2 4 5 6 6 6 5 4 4 4 4 4 4 4 5 5 5 4 4 4 4 4 4 4 4 5 5 6 7 9 12 13 13 14 14 15 16 16 16 17 17 18 18 18 18 18 18 19 19 19 19 19 19 19 19 18 18 18 18 18 18 18 18 18 18 18 18 18 18
4 4 3 4 3 3 3 3 3 3 3 3 3 4 4 3 3 3 4 4 5 5 4 5 5 4 3 3 3 3 3 4 4 4 4 3 3 2 2 3 3 3 3 4 4 5 7 9 9 10 12 13 14 15 15 16 17 18 18 18 19 19 19 19 19 19 19 19 19 19 19 19 19 19 19 19 19 19 19 19 19 18 18 19 19 19
4 4 5 4 4 3 3 3 3 3 3 3 3 3 4 3 3 4 4 5 5 5 4 5 5 5 3 3 2 2 2 2 3 3 4 3 3 2 2 3 3 3 3 4 4 5 7 7 6 7 8 10 11 12 14 15 17 18 18 19 19 19 19 19 19 19 19 19 19 19 19 19 19 19 19 19 19 19 19 19 19 19 19 19 19 19
4 4 5 5 5 4 3 3 4 4 4 4 4 4 4 4 4 4 4 5 6 5 5 6 5 5 3 3 2 1 1 2 2 3 5 4 3 2 2 2 3 4 3 4 4 5 5 5 6 6 7 10 13 16 18 18 18 19 19 20 20 20 20 20 20 20 20 20 20 19 19 19 19 19 19 19 19 19 19 19 19 19 19 19 19 19
3 3 4 4 5 5 4 3 3 4 4 4 4 4 4 4 4 4 4 5 5 5 5 5 5 5 4 3 2 1 1 1 2 4 5 5 4 2 2 2 4 5 4 4 5 5 5 5 6 6 7 11 15 17 19 19 20 20 20 21 21 21 21 20 20 20 20 20 20 19 19 19 19 19 19 19 19 19 19 19 19 19 19 19 19 19
3 3 3 4 5 5 4 4 3 3 4 4 4 4 4 4 4 4 4 4 5 5 5 5 5 5 5 4 3 2 1 2 3 4 6 7 5 3 2 3 4 5 5 5 5 4 5 5 6 7 9 14 17 19 21 21 21 21 22 21 21 21 21 21 20 20 20 20 20 19 19 19 19 19 19 19 19 19 19 19 19 19 19 19 19 19
4 4 4 5 5 5 4 3 3 3 3 4 4 4 4 4 4 4 5 5 5 6 6 6 5 5 5 5 5 3 1 2 3 4 6 7 6 4 3 3 4 5 5 5 5 5 5 6 7 10 14 17 19 21 22 22 22 22 22 22 22 21 21 21 21 20 20 20 20 19 19 19 19 19 19 19 19 19 19 19 20 20 20 20 20 20
5 4 4 4 5 5 5 4 3 4 4 5 6 6 6 5 5 5 5 5 5 5 5 6 6 6 5 5 5 3 1 2 3 4 6 7 7 6 4 4 4 5 5 5 5 5 6 6 8 10 14 17 19 21 23 23 23 23 23 22 22 22 21 21 21 20 20 20 20 19 19 19 19 19 19 19 19 19 20 20 20 20 20 20 20 20
5 5 3 3 4 5 5 4 4 4 6 7 7 6 6 5 5 6 5 4 4 5 4 5 6 6 4 5 5 4 2 3 4 5 5 6 7 6 3 3 4 4 5 5 5 5 6 6 6 7 10 15 19 21 23 24 24 24 24 23 23 22 22 22 21 21 21 20 20 20 20 20 20 20 20 20 20 20 20 20 20 20 20 20 20 20
5 5 4 3 4 5 6 5 5 6 8 8 7 6 5 5 6 6 5 4 4 5 5 5 6 5 5 6 6 5 3 4 5 6 5 6 6 5 2 2 3 4 5 4 4 5 5 6 6 7 11 15 19 22 23 24 24 24 24 24 23 23 23 22 22 21 21 21 20 20 20 20 20 20 20 20 20 20 20 20 20 20 20 20 20 20
4 5 5 4 4 5 6 5 5 6 7 6 6 6 4 4 5 6 5 4 5 5 6 6 6 5 5 6 6 5 4 5 5 5 5 6 6 5 1 2 2 4 5 4 4 5 5 5 6 7 10 16 19 21 23 24 24 24 24 24 24 23 23 23 22 22 21 21 21 20 20 20 20 20 20 20 20 20 20 20 20 20 20 20 20 20
4 5 5 5 5 5 5 5 5 5 5 5 5 5 4 5 5 5 5 5 5 6 6 6 6 6 5 5 5 5 4 4 4 4 4 5 5 5 2 2 4 5 6 5 5 5 5 5 5 6 8 13 17 20 22 23 24 24 24 24 24 23 23 23 22 22 21 21 21 21 21 21 20 20 20 20 20 20 20 20 20 20 19 19 19 19
5 5 5 6 7 9 9 9 9 9 9 7 7 6 6 7 7 7 6 6 7 7 7 8 8 8 7 6 5 4 3 2 3 3 3 4 5 5 4 4 5 6 7 6 5 5 6 6 6 6 7 10 14 18 20 21 22 23 23 23 23 23 23 23 22 22 21 21 21 21 21 21 21 21 21 20 20 20 20 20 19 19 19 18 18 18
9 9 10 12 14 16 18 18 18 18 17 14 11 9 8 8 7 7 7 6 7 7 7 8 9 9 7 6 6 6 4 3 3 2 3 4 5 6 5 4 5 6 7 6 5 5 6 7 6 6 6 7 11 14 18 19 21 22 22 22 23 23 22 22 22 21 21 21 21 21 21 21 21 21 21 21 21 21 20 20 19 19 18 18 18 18
14 15 16 17 19 19 20 20 21 21 21 19 16 13 10 8 7 7 7 6 6 6 7 8 8 8 7 7 6 6 5 4 4 3 4 5 6 6 5 5 5 5 6 6 5 6 7 8 7 5 5 6 7 10 15 17 19 20 21 21 22 22 21 21 21 21 21 21 21 20 20 20 21 21 21 21 21 21 21 21 20 19 19 17 15 14
14 15 16 17 18 18 19 19 19 19 19 19 19 18 13 8 7 7 7 6 6 6 7 7 8 8 7 7 6 5 4 4 4 4 4 5 5 5 5 5 4 5 5 6 5 6 7 7 6 6 6 6 6 8 12 15 17 18 19 20 20 20 20 20 20 20 20 20 20 20 20 21 21 22 22 23 22 22 22 21 21 19 17 14 10 8
12 14 14 15 16 16 17 16 16 16 17 18 17 16 11 6 5 6 6 6 6 7 7 7 8 8 7 7 6 5 4 4 4 4 4 4 4 5 4 4 3 3 4 5 5 5 5 5 5 4 5 6 6 6 7 10 12 13 14 16 17 18 18 18 19 19 19 20 20 21 21 22 23 23 23 23 23 23 22 22 21 18 13 10 8 6
9 9 10 11 11 11 11 10 11 12 15 16 15 14 10 6 4 5 5 5 6 6 7 7 7 7 7 7 6 5 4 3 3 2 1 2 3 4 3 3 3 2 3 4 5 5 4 4 4 4 4 5 5 4 4 5 6 6 8 11 13 14 16 17 18 19 20 21 21 22 23 23 24 24 24 24 24 23 23 23 20 15 9 7 6 6
7 7 6 6 6 6 6 6 7 8 10 12 12 11 8 5 4 4 4 5 5 6 7 7 7 7 7 6 6 5 4 3 3 3 2 3 3 4 4 4 3 3 2 3 4 5 5 4 4 4 4 5 5 5 4 4 4 4 5 6 8 10 14 17 18 19 20 21 22 23 24 24 24 24 24 24 23 23 22 22 20 15 8 6 6 6
7 7 6 6 5 5 5 5 5 6 6 7 7 7 7 6 5 5 5 5 5 5 6 6 7 7 7 6 6 6 5 4 5 5 4 3 3 4 4 4 4 4 3 3 5 6 6 5 5 5 5 6 6 6 5 6 5 5 5 6 7 9 13 15 16 17 18 19 21 22 23 24 24 24 24 23 23 22 22 22 20 15 9 6 6 6
7 7 6 6 6 5 5 5 5 5 5 5 5 5 5 6 6 5 5 4 4 4 5 6 7 7 7 7 7 6 5 4 4 5 6 5 4 4 4 5 6 6 6 5 5 6 7 7 7 6 7 7 6 6 6 6 6 5 6 6 6 8 10 12 12 13 13 14 16 17 20 21 21 22 22 22 22 22 21 22 20 17 12 8 6 7
7 7 7 6 6 5 5 5 5 5 5 5 5 5 4 4 5 5 5 4 4 4 5 6 7 7 7 7 7 7 6 5 6 8 9 7 5 5 5 6 7 8 7 6 6 7 7 8 8 7 7 7 7 6 6 6 6 5 5 6 6 7 8 8 9 9 10 10 10 11 12 14 15 17 18 19 19 19 20 21 21 20 18 13 9 7
7 7 7 6 6 6 6 5 5 5 5 5 5 5 4 4 4 4 4 4 4 4 5 6 6 7 7 8 8 8 8 7 8 9 9 7 6 5 6 7 7 7 8 7 7 7 7 9 9 9 8 8 8 7 6 6 5 5 5 6 6 6 6 6 6 7 8 8 7 7 7 7 8 10 12 14 16 17 19 20 21 22 22 20 16 12
6 6 6 6 5 5 6 6 5 5 5 4 4 4 3 3 3 4 4 4 4 5 6 6 6 6 6 7 9 10 10 9 9 10 10 8 7 6 6 7 7 7 8 8 8 7 8 9 10 11 11 10 9 7 6 5 5 4 4 5 5 6 6 5 5 6 6 6 6 6 6 6 6 7 9 13 16 18 20 21 22 23 24 24 23 20
6 5 5 5 5 6 6 5 5 4 4 4 4 3 4 4 4 4 5 5 5 5 6 7 7 7 8 8 8 9 10 9 9 9 10 8 7 7 7 7 7 8 8 8 8 8 8 9 10 10 10 10 9 7 6 6 5 5 5 5 5 6 6 5 6 6 6 7 7 8 8 7 7 8 9 13 15 17 19 21 22 22 23 24 24 24
6 5 5 5 5 5 6 5 5 5 6 6 6 6 6 6 6 6 6 6 6 6 6 7 7 8 11 12 11 11 10 11 11 11 11 9 8 7 8 8 8 8 8 8 8 8 9 9 10 10 9 9 9 9 9 8 7 6 6 6 6 6 6 6 6 6 6 8 9 9 10 9 8 8 9 10 10 11 12 13 14 16 19 19 21 23
6 6 6 6 6 6 6 7 7 7 7 7 7 7 7 8 8 8 7 7 6 7 7 7 7 8 10 11 12 13 12 12 11 11 10 9 8 8 8 8 8 8 8 8 8 9 9 9 9 9 9 9 9 9 9 8 8 8 8 7 7 7 7 6 6 6 6 7 8 9 9 8 8 8 8 7 7 8 8 8 9 11 11 10 12 15
7 6 6 7 7 7 7 7 7 7 6 7 8 8 8 8 7 7 7 6 6 6 7 7 8 8 9 9 10 11 11 9 9 9 8 7 6 7 7 8 9 9 8 8 7 8 8 9 9 10 10 9 9 10 9 8 8 9 9 8 7 7 8 7 6 6 6 6 7 7 7 7 7 8 8 8 8 8 8 7 7 8 8 7 6 7
7 7 7 7 7 7 7 7 7 7 7 7 7 7 6 6 6 6 6 6 6 6 6 6 7 7 7 7 7 8 9 8 8 8 6 7 7 8 7 8 8 8 8 7 7 7 8 9 10 10 10 10 11 11 11 10 11 12 12 10 10 9 10 10 9 8 8 7 7 8 9 9 9 9 9 9 9 8 8 8 7 7 7 7 6 6
8 8 7 7 7 6 6 7 7 8 8 7 6 6 6 5 5 6 6 6 6 6 6 6 7 7 8 7 7 7 7 7 7 8 8 8 8 8 8 8 8 8 8 8 9 9 9 9 10 10 10 10 10 10 10 11 11 11 11 11 11 11 11 11 9 8 8 8 8 8 10 10 10 9 10 10 9 9 9 8 9 9 9 7 7 7
8 7 7 7 7 7 7 8 8 8 7 7 7 7 6 5 5 5 7 7 7 7 7 7 7 8 9 9 9 7 6 6 7 8 8 8 8 8 8 8 8 8 7 8 9 9 9 10 10 10 10 10 10 11 12 11 11 10 10 11 10 10 8 8 7 6 7 8 8 8 8 9 9 9 9 9 9 8 8 9 11 12 11 9 8 8
7 7 7 7 7 7 7 7 7 7 7 7 7 7 7 6 7 7 8 7 7 7 7 7 7 7 8 9 9 9 7 6 6 6 7 7 8 8 8 8 8 8 8 8 8 8 9 9 9 9 9 9 9 10 11 11 11 11 10 10 11 10 9 9 8 8 9 8 8 8 9 9 9 9 8 8 8 8 8 9 9 9 10 9 9 9
7 7 7 7 7 7 7 7 7 7 7 7 7 7 7 7 7 7 7 7 7 7 7 7 6 7 8 8 9 8 7 7 6 6 6 7 10 11 9 8 7 7 8 8 8 8 8 9 9 9 8 9 9 10 11 11 11 11 12 12 11 12 12 11 10 10 10 10 9 10 10 9 8 9 9 9 9 9 9 9 9 9 9 9 9 9
6 7 7 7 7 7 8 8 7 7 7 7 8 7 7 6 6 5 6 7 7 7 7 6 6 7 8 8 8 8 8 8 8 7 6 6 6 6 7 7 7 7 7 8 9 9 9 10 10 10 9 9 10 11 11 11 11 11 11 12 11 11 11 11 10 10 10 10 10 10 9 8 8 8 9 9 10 9 9 9 9 10 9 9 9 9
7 7 7 7 7 7 7 7 7 7 7 8 8 7 6 6 6 6 6 7 7 7 7 6 6 7 8 8 8 8 9 9 9 8 7 7 6 6 6 6 7 8 8 9 9 10 11 11 11 10 10 10 10 11 11 11 11 11 11 11 11 10 11 10 10 10 10 10 10 10 10 8 8 9 9 9 9 9 9 9 9 9 9 9 9 10
7 7 7 7 7 7 8 7 7 7 8 8 8 7 7 7 7 7 7 6 6 7 7 7 7 8 8 9 8 8 9 10 10 9 9 8 7 7 6 6 6 7 8 9 10 11 12 12 12 12 11 11 11 11 11 11 11 11 11 11 10 10 11 11 10 10 9 10 10 10 9 8 8 9 9 9 9 9 9 9 8 8 8 8 9 9
7 7 8 8 7 8 8 7 7 8 8 8 8 8 7 8 9 9 7 6 6 6 6 7 8 8 9 9 9 9 9 10 9 9 9 8 7 7 6 6 6 6 7 7 8 9 10 11 13 13 13 12 12 12 12 12 11 11 10 10 10 10 10 10 10 10 9 10 10 10 9 9 9 9 9 10 10 10 10 10 9 8 7 7 8 8
7 7 7 7 8 8 8 8 8 8 8 9 9 8 8 7 7 6 6 6 6 6 6 7 8 8 9 9 9 9 9 9 9 9 8 7 7 6 6 6 6 7 7 6 6 6 7 7 9 11 14 14 14 13 12 12 11 11 10 10 10 9 10 10 10 10 9 10 10 10 10 9 9 9 9 10 11 11 11 11 10 8 7 6 7 8
8 7 7 7 7 8 8 8 8 8 9 9 9 8 8 7 7 6 6 6 6 7 7 7 8 8 9 9 9 9 9 9 9 9 9 7 7 7 7 7 7 7 7 7 6 6 6 6 6 7 9 13 16 15 12 11 11 10 10 10 9 9 9 9 9 9 9 9 9 9 9 9 9 9 8 9 10 10 11 11 10 9 7 6 7 8
Wind_Direction
319 323 322 326 326 324 323 334 340 343 343 343 340 336 332 329 324 318 315 313 307 302 299 293 289 287 290 296 299 302 303 304 303 301 299 298 296 294 292 291 288 287 286 285 283 282 282 281 281 281 281 281 281 282 281 282 282 283 282 282 281 281 280 281 281 281 282 282 281 281 281 280 280 280 279 276 274 273 276 279 282 284 287 291 294 297
318 318 320 332 333 330 323 340 349 351 347 344 342 340 339 337 334 329 325 319 314 309 306 301 298 296 294 296 299 301 304 305 304 302 299 294 291 288 287 285 284 284 283 283 283 283 283 283 284 283 282 281 280 279 277 277 276 274 272 273 274 274 277 279 282 284 286 286 286 286 285 284 283 281 277 273 271 271 274 276 279 281 283 286 289 292
323 322 326 338 339 333 324 337 345 348 344 339 338 338 338 336 335 333 332 329 325 320 315 310 307 305 304 304 307 310 313 315 314 312 309 301 295 289 286 283 281 280 278 278 279 280 281 283 284 285 285 284 283 281 280 278 275 273 271 271 272 275 279 284 288 291 294 295 296 296 294 291 287 282 276 272 270 270 272 275 276 278 280 282 284 287
323 321 328 335 333 326 322 329 334 336 336 332 332 333 335 333 330 327 326 326 326 324 321 318 317 317 318 320 322 323 325 327 326 325 323 318 311 304 297 290 287 283 279 278 278 279 278 281 282 283 283 283 282 281 280 278 276 274 273 274 277 282 288 293 297 301 306 307 308 308 305 299 292 285 278 273 271 270 271 273 274 276 277 279 281 284
321 320 328 329 323 317 319 323 326 327 327 327 328 329 330 326 322 320 319 320 321 322 322 323 325 327 331 332 331 330 329 329 328 327 327 324 320 316 311 305 302 298 294 291 289 288 286 287 286 285 285 284 282 280 278 276 275 274 275 278 283 288 294 298 302 306 310 311 313 312 309 304 298 291 285 280 277 274 273 273 274 274 275 276 278 281
316 319 326 321 315 312 315 319 324 326 325 324 325 325 322 319 316 315 315 318 318 318 318 320 324 327 329 328 327 326 326 325 324 323 322 320 318 315 313 310 309 307 304 302 301 299 297 296 295 293 291 288 285 282 279 277 277 278 280 283 287 292 295 299 302 304 307 309 309 309 308 306 302 297 293 288 283 280 278 276 275 275 275 276 277 279
308 313 323 313 306 305 309 314 322 328 328 324 322 320 315 312 310 308 308 310 312 313 313 315 318 321 323 323 322 323 323 321 319 318 316 314 312 311 309 308 306 305 304 303 302 301 300 298 297 295 292 289 287 284 282 282 283 285 288 291 294 296 298 300 301 302 303 304 304 304 303 302 301 298 296 291 288 285 282 280 278 277 277 277 278 279
307 311 320 312 309 307 306 307 318 328 330 324 321 318 315 312 308 304 302 302 305 310 314 317 318 318 318 319 320 321 319 318 316 315 314 311 310 308 307 306 305 304 303 302 301 300 299 297 296 294 291 290 288 287 286 287 289 292 294 297 298 299 300 301 301 301 301 300 300 299 298 297 296 295 293 291 289 287 285 283 281 280 280 279 279 279
305 310 313 310 310 312 309 307 312 321 323 317 314 313 313 313 311 309 306 305 307 314 320 319 318 316 314 315 316 315 313 312 311 310 309 308 308 307 306 305 305 304 304 304 303 303 302 301 299 298 296 295 294 294 293 293 294 296 297 299 300 300 300 300 300 299 298 298 297 296 295 293 292 291 290 289 287 286 284 283 282 281 281 281 281 280
301 305 306 303 300 300 302 304 306 306 307 300 295 295 300 308 312 314 314 313 315 319 320 318 316 315 314 313 312 311 310 307 305 304 304 303 304 304 304 305 305 306 306 307 308 308 308 307 306 306 304 302 301 299 297 297 297 297 297 297 298 298 298 298 297 297 296 295 294 293 292 290 289 288 286 285 284 283 282 281 280 280 280 280 280 280
304 301 300 298 294 286 282 289 293 299 314 307 296 286 281 295 309 315 316 315 317 319 316 314 313 313 313 314 312 310 307 304 302 302 301 301 301 302 302 303 305 306 308 310 311 312 312 310 309 308 305 303 301 299 297 296 295 294 294 294 294 294 294 294 293 293 293 292 291 290 289 288 287 285 284 283 282 281 280 279 279 278 278 278 278 278
305 303 297 297 297 297 291 289 294 307 328 322 315 308 302 294 299 308 309 310 313 315 313 310 307 304 305 307 308 307 304 300 299 299 298 299 299 300 301 303 306 307 309 310 311 311 310 308 306 304 302 300 298 296 295 293 292 291 290 290 289 289 289 289 289 289 288 288 288 287 286 285 284 283 282 282 281 280 279 278 277 276 276 276 275 275
301 301 300 300 301 304 306 308 312 317 323 319 313 309 306 302 298 298 297 301 305 308 308 306 303 298 292 290 293 296 297 295 294 293 294 294 295 297 297 299 301 303 306 307 305 304 305 303 302 300 299 297 295 293 292 290 289 288 287 286 286 286 286 285 285 285 285 285 285 284 284 283 283 282 282 281 280 279 278 277 276 275 275 274 274 273
304 304 303 303 305 307 310 312 313 312 312 308 301 297 296 300 303 303 298 298 298 299 299 299 299 298 292 281 275 275 282 289 291 291 290 286 283 281 285 289 292 294 298 299 297 296 297 299 299 297 296 294 293 291 289 288 287 286 285 284 284 284 284 284 284 284 284 283 283 283 282 282 282 281 281 280 280 279 278 277 276 275 274 273 273 272
306 307 304 303 304 306 309 310 307 304 303 302 299 297 299 302 304 304 302 300 301 301 300 296 295 293 286 273 264 262 271 284 291 293 291 283 272 260 263 283 287 289 291 293 292 292 294 293 292 290 290 288 286 285 285 284 284 284 284 284 284 284 284 284 284 284 284 284 283 282 281 281 281 280 280 279 279 278 277 276 275 275 274 273 272 272
300 300 300 301 303 304 307 308 305 302 300 298 298 300 303 303 301 299 297 298 300 303 302 302 301 297 286 272 259 253 274 285 287 290 293 289 279 259 242 278 287 288 287 287 287 288 289 286 283 281 281 282 283 284 285 285 284 284 284 285 285 285 286 286 286 285 285 284 283 282 281 280 279 279 279 278 278 277 277 276 275 274 274 273 272 272
294 293 295 300 302 304 305 302 297 294 295 296 295 294 294 293 294 294 292 294 297 298 297 300 301 302 301 296 279 244 245 284 288 290 294 292 288 275 246 269 280 284 285 282 281 282 284 282 281 280 279 281 284 285 286 286 286 286 286 286 286 286 286 286 286 285 284 283 282 281 280 279 279 278 278 278 278 278 277 277 276 275 274 273 272 272
303 303 305 307 307 307 307 302 296 292 293 294 294 292 287 285 286 288 288 290 292 293 292 291 291 294 302 303 298 277 214 270 287 292 294 291 289 282 255 258 266 273 277 277 276 276 276 276 276 277 279 283 285 286 287 287 287 286 286 286 286 286 286 286 285 284 283 282 281 280 279 279 279 279 279 279 279 279 279 278 278 277 276 275 274 273
322 322 321 316 313 312 309 305 301 299 299 297 297 296 293 289 286 285 284 284 283 284 287 287 286 285 290 290 292 289 225 257 280 290 291 288 285 279 260 260 263 267 270 272 273 273 272 272 273 276 278 282 284 286 286 286 286 286 285 285 285 285 285 285 284 283 282 281 280 279 279 279 279 279 280 280 280 280 280 279 279 278 277 277 276 274
323 322 321 317 314 310 306 302 300 299 299 298 296 295 292 290 285 279 276 274 272 272 276 278 278 278 278 280 284 287 267 269 280 284 284 284 282 279 267 263 264 266 267 268 269 269 270 270 272 275 278 280 282 283 285 285 285 285 285 285 285 284 284 284 283 282 281 280 279 279 278 278 279 279 279 280 280 280 280 279 279 278 278 277 277 276
308 305 302 302 302 301 301 300 297 293 293 293 292 288 284 283 279 274 270 269 269 268 267 266 268 270 273 277 283 289 295 285 284 284 284 280 278 276 269 259 259 262 264 265 264 262 263 265 266 269 272 276 279 281 283 284 284 285 285 285 284 284 284 283 282 281 280 279 278 278 277 278 278 279 279 280 280 279 279 279 278 278 277 277 277 276
296 296 294 288 285 287 290 292 291 289 288 287 284 279 278 280 280 279 279 278 277 274 271 269 270 273 278 281 285 288 286 276 276 279 283 279 277 274 256 239 244 254 260 262 261 258 256 259 260 263 266 272 276 279 281 283 284 284 284 284 284 283 283 282 281 280 279 278 277 276 276 277 278 279 280 280 280 280 279 278 277 277 276 276 276 275
288 291 293 288 285 285 289 291 290 288 286 283 280 279 282 283 285 288 292 289 286 283 280 280 281 281 279 280 281 279 270 261 263 268 273 275 278 279 250 239 251 259 261 265 266 264 257 256 257 261 265 270 274 277 280 282 283 283 284 283 283 282 281 281 280 278 277 276 276 275 275 276 278 279 280 280 280 280 279 278 277 276 275 275 275 275
289 292 296 297 298 299 300 301 301 300 296 292 290 289 289 288 288 290 293 294 294 294 293 294 292 288 281 277 275 271 259 247 249 257 265 274 281 285 278 272 272 272 271 268 269 270 267 263 260 260 264 269 272 275 277 280 281 282 282 282 282 281 280 279 278 277 276 275 275 275 275 276 278 279 281 281 281 280 279 278 276 275 275 275 276 276
301 303 308 310 313 314 314 313 312 312 311 308 306 304 301 298 298 298 300 302 302 301 299 298 296 293 290 288 286 283 277 247 239 247 266 277 279 279 276 275 275 276 276 276 276 275 276 273 270 268 266 269 271 273 275 277 278 279 280 280 280 280 279 279 278 277 276 275 275 275 276 277 279 281 282 282 282 281 280 278 277 277 277 278 279 280
320 320 320 318 317 315 314 313 312 311 311 310 309 308 306 305 305 305 305 302 301 299 299 297 295 293 293 295 294 295 298 284 264 254 267 276 278 278 279 278 277 278 281 284 283 279 277 275 274 271 269 269 271 272 274 275 276 277 278 279 279 279 279 279 278 277 277 276 276 276 277 279 281 283 284 284 283 282 281 280 279 279 280 281 282 282
327 324 321 318 316 315 314 312 311 311 310 308 307 306 304 305 303 301 297 297 298 299 298 296 294 293 293 292 291 292 297 298 291 282 277 279 280 282 285 282 280 280 284 284 278 272 271 275 277 276 273 271 271 271 272 273 275 276 277 278 279 279 280 280 280 280 280 279 279 279 280 282 283 285 286 285 284 283 281 280 280 280 282 283 283 283
328 324 321 318 317 316 315 314 313 312 310 308 307 306 304 304 300 297 295 299 301 301 297 294 293 292 292 290 288 289 292 290 284 277 274 274 276 279 284 280 278 279 285 284 278 272 271 274 276 274 270 268 267 268 269 272 274 276 278 279 280 281 282 283 284 284 283 283 283 283 284 284 285 286 286 285 284 282 280 280 280 280 282 282 281 278
325 321 319 318 317 317 317 316 314 311 309 308 308 308 308 305 299 296 297 303 303 299 293 290 289 288 289 289 289 287 282 273 265 259 258 264 270 275 283 282 285 291 296 292 286 279 270 267 263 259 259 261 261 264 267 272 275 278 281 282 283 284 284 285 285 285 284 284 284 283 283 284 284 284 284 283 282 280 279 278 278 279 280 279 276 271
322 320 318 318 318 317 317 313 309 307 306 307 308 309 309 305 297 293 296 299 296 293 290 289 289 290 294 296 295 291 281 272 267 269 277 281 283 288 297 298 308 322 326 306 296 287 276 267 259 257 260 264 267 269 271 273 276 279 282 283 284 284 283 283 283 282 282 281 281 281 281 281 281 281 280 279 278 277 276 276 276 276 275 272 269 266
321 320 317 316 315 313 309 302 299 300 302 304 305 305 303 297 290 285 287 288 288 288 289 291 293 295 299 301 300 297 294 297 306 318 343 315 303 302 313 309 313 322 332 311 302 298 294 285 276 272 276 279 281 281 279 277 274 272 274 278 279 279 279 279 279 279 279 278 278 278 278 277 277 277 277 276 275 274 273 273 273 272 271 268 265 263
319 318 315 313 310 306 302 299 296 295 295 296 295 293 291 288 285 283 284 285 286 287 288 290 291 291 290 288 286 284 284 283 297 315 338 323 310 306 311 306 306 306 305 295 291 292 295 294 291 289 288 288 286 283 279 276 272 268 267 270 272 274 275 275 275 276 275 275 275 275 275 274 274 274 274 273 272 272 271 271 270 270 267 264 262 261
316 315 312 309 306 302 299 296 293 290 287 285 282 280 280 281 280 281 282 283 285 287 288 288 287 285 281 276 273 272 271 272 300 325 333 322 309 302 302 300 299 298 297 289 284 283 285 289 293 294 291 287 284 281 278 274 270 265 263 265 268 270 271 270 271 271 271 272 272 272 272 272 272 272 272 271 271 271 271 270 270 269 267 264 262 260
313 310 307 305 302 299 295 291 286 283 281 279 277 276 275 276 278 281 284 285 286 286 286 287 288 288 288 286 283 280 280 287 304 315 318 312 304 298 299 296 296 296 297 292 288 285 282 284 288 291 291 287 283 280 279 277 272 267 261 262 264 267 268 268 268 269 269 269 269 270 270 271 271 271 271 271 271 271 271 271 270 270 269 267 265 263
308 306 304 301 299 296 293 290 286 283 281 279 279 280 282 283 286 288 290 291 290 287 285 285 286 288 290 291 290 287 285 288 296 302 304 301 298 295 295 291 291 293 293 290 288 287 284 284 285 287 289 289 286 282 280 278 275 270 263 261 262 264 267 267 269 271 271 270 270 269 269 269 270 270 270 270 270 271 271 271 271 270 270 269 268 266
305 303 301 298 297 296 296 295 294 292 290 288 287 288 291 295 296 296 293 291 287 284 282 279 277 276 276 278 280 282 284 289 294 297 297 294 292 290 288 285 286 287 287 286 285 284 284 285 286 285 286 286 286 285 282 279 275 272 268 265 265 265 266 265 266 267 271 271 270 269 267 265 264 264 265 267 269 269 270 270 270 270 270 269 268 267
302 300 299 298 299 301 304 303 303 303 301 302 302 304 308 306 303 300 294 288 283 281 280 278 275 272 269 270 272 276 281 287 290 291 289 286 283 280 279 280 281 281 280 282 283 284 284 285 285 284 281 280 282 285 288 287 284 279 274 270 267 267 266 262 259 258 263 265 266 265 264 262 261 261 262 266 267 269 270 270 270 270 270 269 269 267
304 304 305 306 308 311 313 313 312 312 313 314 315 314 312 307 303 298 294 288 283 280 279 278 276 274 272 272 272 272 275 278 279 279 278 275 272 271 272 276 276 275 274 276 278 279 278 279 280 280 279 277 277 279 284 286 285 281 277 272 267 263 262 258 254 252 254 258 261 261 261 260 260 260 262 264 265 267 268 268 268 268 269 268 268 267
308 309 311 314 315 315 315 313 313 313 314 313 310 307 304 300 296 293 289 286 282 278 275 274 275 275 273 271 270 271 272 272 271 270 269 267 265 266 269 273 275 274 272 269 267 266 266 268 270 273 277 279 279 279 280 280 281 282 283 281 274 267 262 258 254 251 251 254 257 259 261 259 259 259 260 260 261 261 262 263 262 262 262 263 265 265
311 311 311 312 313 313 312 310 309 308 306 301 299 298 297 296 294 291 287 283 280 278 274 272 272 272 271 270 270 270 270 269 267 266 265 261 259 261 266 271 273 274 272 268 264 261 262 265 268 271 274 278 282 283 284 282 281 283 286 285 281 276 273 271 267 262 257 254 255 258 260 259 258 257 256 255 254 254 254 255 255 254 252 250 253 259
312 310 309 310 309 308 305 304 302 299 296 296 296 297 296 296 296 296 294 291 287 284 282 280 279 278 276 273 272 271 271 269 267 265 264 260 259 260 264 269 272 276 278 279 277 274 272 273 275 276 277 279 282 284 284 283 283 285 286 284 283 284 284 280 276 272 268 262 257 256 259 260 260 258 255 254 252 249 248 248 248 247 247 242 239 240
310 308 308 307 306 304 302 299 297 296 295 295 295 296 296 297 297 299 300 300 298 297 296 297 298 297 294 290 285 281 278 276 272 269 265 261 259 259 263 267 272 276 281 281 279 276 273 274 275 277 278 281 283 284 283 283 283 283 282 282 284 286 285 277 271 267 266 263 260 258 258 260 261 260 258 256 254 251 247 243 242 242 242 239 234 232
306 304 303 302 301 299 297 298 298 299 300 299 298 297 298 298 297 297 298 299 300 302 303 303 302 301 299 297 295 292 285 276 269 266 264 259 257 257 261 263 266 269 272 274 274 274 272 270 270 271 274 277 279 280 281 283 283 281 278 278 281 283 282 277 274 271 267 264 261 258 257 259 260 261 260 258 256 253 250 247 246 244 241 239 236 234
299 298 299 298 298 298 299 301 302 302 302 301 299 299 298 297 296 296 296 296 298 300 301 300 298 295 292 293 294 296 294 288 279 271 268 265 262 261 264 264 265 266 267 270 274 277 278 273 270 270 272 273 273 274 275 278 279 278 277 275 274 272 272 277 280 280 275 270 265 261 259 260 261 262 261 258 256 254 251 249 248 246 244 242 240 238
295 296 298 299 301 302 303 302 302 301 301 300 298 297 296 296 296 295 294 294 294 294 294 296 296 294 291 292 295 298 299 298 295 290 280 276 275 275 273 271 270 270 268 268 269 272 276 276 275 274 273 270 268 268 270 273 274 275 274 272 269 268 266 271 274 276 274 272 270 267 264 263 264 264 262 259 255 252 250 249 248 247 245 243 241 240
295 296 298 300 301 301 300 300 301 300 298 296 295 294 294 294 293 290 288 289 290 291 291 292 292 291 291 294 297 299 300 299 298 296 293 285 280 275 271 268 266 266 266 266 265 265 266 269 273 275 276 272 267 265 264 267 269 271 271 270 269 268 268 268 268 268 269 271 271 269 267 266 264 263 261 260 258 254 250 247 245 243 242 241 240 240
298 299 300 301 301 300 299 300 299 297 295 294 294 295 295 295 293 291 289 289 289 291 292 291 289 286 286 289 293 295 297 297 298 298 296 293 288 281 274 269 263 261 260 261 261 261 260 261 263 266 269 270 270 268 266 265 265 266 268 268 268 267 267 266 265 265 266 267 269 270 271 270 267 264 262 262 261 259 254 249 245 241 238 238 237 238
302 302 301 301 300 298 297 298 297 296 295 295 295 296 296 297 297 296 293 292 292 292 292 292 289 286 284 285 286 288 290 291 293 294 295 294 292 289 283 277 270 264 259 258 258 258 258 256 255 255 256 260 264 268 269 266 264 262 264 266 266 266 265 265 265 265 264 264 264 265 267 267 266 266 266 267 266 263 259 254 247 240 235 234 235 236
302 300 299 298 297 296 296 296 296 296 295 296 296 296 296 296 296 296 294 294 292 290 290 288 287 286 285 285 285 286 286 286 287 288 289 291 291 290 287 284 281 276 270 264 260 258 257 254 249 245 243 246 252 259 264 264 263 262 262 263 263 264 265 266 266 264 263 261 260 259 258 259 260 262 265 267 267 267 266 262 255 247 237 233 232 233
298 296 296 296 295 294 294 295 295 296 295 296 296 297 297 297 296 295 292 290 288 286 284 283 284 284 284 285 285 285 285 284 284 285 285 287 289 290 289 289 289 288 285 280 274 270 267 261 251 241 234 234 238 245 255 260 262 263 262 260 260 260 262 265 265 264 261 260 259 257 255 255 254 255 257 260 263 265 266 264 260 253 242 234 231 232
298 296 295 294 293 293 293 294 294 294 294 294 295 296 297 298 297 295 292 289 287 285 282 281 281 281 282 283 284 284 283 283 283 284 285 286 288 289 289 290 291 291 291 290 288 287 285 285 277 262 243 235 233 234 243 251 258 262 263 260 259 258 259 263 264 263 261 260 259 257 255 253 252 251 250 254 258 262 264 264 261 256 246 236 232 233